www.pogodaiklimat.ru

Погода и климат >> Архив погоды >> Россия >> Коми >> Объячево


ПОГОДА в Объячеве

  • Прогноз погоды в Объячеве
  • Монитор погоды в Объячеве

АРХИВ ПОГОДЫ в Объячеве

Время (UTC), дата Ветер
(напр.,м/с)
 
Видим.   Явления Облачность Т
(С)
Тd
(С)
f
(%)
Тe
(С)
Тes
(С)
Комфортность P
(гПа)
Po
(гПа)
Тmin
(С)
Tmax
(С)
R
(мм)
R24
(мм)
S
(см)
03 12.02 Ю 4 20 км 10/10 300 м
[Sc]
-5.3 -7.0 88 -12 -12 1018.5 999.3 -5.3 0.0 68
06 12.02 Ю 4 20 км 10/10 600 м
[Sc]
-5.0 -7.0 86 -11 -11 1018.1 999.0 -5.5
09 12.02 Ю 3 20 км 10/10 600 м
[Sc]
-4.2 -7.1 80 -9 -9 1017.7 998.7
12 12.02 Ю 4 20 км 10/10 600 м
[Sc]
-3.7 -6.6 80 -10 -10 1017.3 998.3
15 12.02 Ю 4
{10}
20 км 10/10 600 м
[Sc]
-3.9 -6.6 81 -10 -10 1017.7 998.7 -3.7
18 12.02 Ю 4 10 км слаб. ливневой снег 10/10 600 м
[Cb cap]
-3.9 -6.2 84 -10 -10 1017.2 998.2
21 12.02 Ю 4 10 км слаб. ливневой снег 10/10 600 м
[Cb cap]
-3.8 -6.0 85 -10 -10 1016.3 997.3
00 13.02 Ю 4
{10}
4000 м слаб. ливневой снег {метель} 10/10 600 м
[Cb cap]
-3.7 -6.1 83 -10 -10 1015.3 996.3
03 13.02 Ю 3 4000 м слаб. ливневой снег {метель} 10/10 600 м
[Cb cap]
-3.9 -6.0 85 -9 -9 1014.3 995.4 -4.0 0.9 67
06 13.02 Ю 5 20 км позёмок {ливн. осадки} 10/10 600 м
[Sc]
-2.9 -5.8 80 -10 -10 1014.0 995.1
09 13.02 Ю 5
{10}
20 км позёмок 10/5 1000 м
[Sc Ac und]
-3.3 -7.2 74 -10 -10 1014.2 995.2
12 13.02 Ю 4
{10}
10 км слаб. ливневой снег {метель} 9/8 600 м
[Cb cap Ac trans]
-3.6 -7.1 77 -10 -10 1011.9 993.0
15 13.02 Ю 3
{10}
20 км позёмок {ливн. осадки} 10/0
[Ac As]
-4.2 -9.2 68 -9 -9 1009.0 990.1 -2.9 0.0
18 13.02 Ю 5
{13}
1000 м ливневой снег {метель} ?/? -6.0 -8.3 84 -13 -13 1007.0 988.0
21 13.02 Ю 4
{11}
4000 м слаб. ливневой снег {метель} 10/10 300 м
[Cb cap]
-6.4 -8.8 83 -13 -13 1006.3 987.3
00 14.02 Ю 3 4000 м слаб. ливневой снег {метель} 10/10 300 м
[Cb cap]
-5.7 -8.1 83 -11 -11 1006.0 987.1
03 14.02 ЮЗ 4
{11}
10 км слаб. ливневой снег {метель} 10/10 600 м
[Cb cap]
-4.4 -7.4 80 -11 -11 1007.1 988.3 -6.4 2 69
06 14.02 ЮЗ 3 20 км {ливн. осадки, метель} 10/10 600 м
[Cb cap]
-3.9 -6.7 81 -9 -9 1009.4 990.5
09 14.02 З 3
{11}
20 км {ливн. осадки} 10/4 600 м
[Cb cap As op]
-5.6 -8.5 80 -11 -11 1012.7 993.6
12 14.02 З 3 20 км {ливн. осадки, метель} 9/6 600 м
[Cb cap As op]
-5.6 -10.3 69 -11 -11 1014.3 995.2
15 14.02 СЗ 4 10 км слаб. ливневой снег 10/3 600 м
[Cb cap As op]
-6.7 -11.1 71 -13 -13 1015.8 996.6 -3.6 0.2
18 14.02 З 3 10 км слаб. снег 9/0
[Ac As]
-7.5 -10.6 78 -13 -13 1016.0 996.8
21 14.02 ЮЗ 2 10 км слаб. снег 9/0
[Ac As]
-7.9 -10.7 80 -12 -12 1015.9 996.6
00 15.02 ЮЗ 3 10 км слаб. снег 10/0
[As op]
-8.6 -11.5 80 -14 -14 1014.7 995.4
03 15.02 ЮЗ 3 10 км слаб. снег 10/5
[Sc As op]
-8.5 -11.8 77 -14 -14 1011.9 992.6 -8.7 0.2 66
06 15.02 Ю 4 20 км {снег} 10/5 600 м
[Sc Ac As]
-7.7 -11.3 75 -14 -14 1006.7 987.6
09 15.02 Ю 4 1000 м ливневой снег 10/3 600 м
[Cb cap As op]
-7.2 -9.9 81 -14 -14 1002.4 983.5
12 15.02 Ю 3
{11}
1000 м ливневой снег {метель} 10/6 300 м
[Cb cap As op]
-7.2 -9.9 81 -13 -13 999.2 980.3
15 15.02 Ю 2 4000 м слаб. ливневой снег {метель} 9/5 300 м
[Cb cap As trans]
-7.3 -9.7 83 -12 -12 997.1 978.3 -6.9 2
18 15.02 Ю 2 20 км {ливн. осадки, метель} 10/3 600 м
[Cb cap As op]
-7.5 -9.9 83 -12 -12 995.9 977.1
21 15.02 Ю 2 20 км {ливн. осадки} 9/3 600 м
[Cb cap As op]
-7.3 -9.7 83 -12 -12 995.4 976.6
00 16.02 Ю 2 20 км 10/6 600 м
[Sc As op]
-7.2 -9.5 84 -12 -12 994.8 975.9
03 16.02 ЮВ 1 4000 м слаб. снег 9/5 600 м
[Sc As op]
-7.0 -9.1 85 -9 -9 994.4 975.6 -7.7 0.2 65
06 16.02 штиль 0 2000 м слаб. ливневой снег 9/6 600 м
[Cb cap As op]
-6.6 -8.9 84 -7 -7 996.0 977.2
09 16.02 С 3 20 км слаб. ливневой снег 10/8 600 м
[Cb cap As op]
-5.3 -7.9 82 -11 -11 998.6 979.8
12 16.02 СЗ 3 20 км {ливн. осадки} 10/10 600 м
[Cb cap]
-4.1 -7.3 78 -9 -9 1000.9 982.2
15 16.02 С 1 10 км слаб. ливневой снег 6/6 600 м
[Cb cap]
-6.1 -7.5 90 -9 -9 1002.3 983.4 -4.1 0.3
18 16.02 штиль 0 4000 м слаб. ливневой снег 9/9 600 м
[Cb cap]
-5.1 -6.5 90 -6 -6 1001.7 982.9
21 16.02 ЮЗ 1 20 км {ливн. осадки} 9/5 600 м
[Sc Ac As]
-5.7 -7.0 91 -8 -8 1000.5 981.7
00 17.02 Ю 3 20 км {ливн. осадки} 9/0
[Ac As]
-6.2 -7.8 88 -12 -12 996.5 977.7
03 17.02 Ю 4 4000 м слаб. ливневой снег {метель} 10/5 600 м
[Cb cap Ac As]
-5.5 -7.3 87 -12 -12 991.1 972.4 -6.8 0.4 66
06 17.02 Ю 5
{10}
4000 м слаб. снег 10/8 300 м
[Frnb As op]
-4.3 -6.9 82 -11 -11 985.7 967.3
09 17.02 Ю 4 4000 м слаб. снег {метель} 10/6 300 м
[Frnb As op]
-3.8 -5.7 87 -10 -10 983.0 964.6
12 17.02 Ю 3 1000 м ливневой снег {метель} 10/8 300 м
[Cb cap Ac und]
-3.3 -4.8 89 -9 -9 980.6 962.3
15 17.02 Ю 2 4000 м слаб. ливневой снег 10/8 300 м
[Cb cap Ac und]
-3.3 -4.6 91 -7 -7 980.4 962.1 -3.2 4
18 17.02 З 1 20 км {ливн. осадки} 10/10 300 м
[Cb cap]
-3.1 -4.2 92 -5 -5 980.7 962.4
21 17.02 С 2 20 км 10/10 600 м
[Cb cap]
-2.6 -3.8 91 -7 -7 982.0 963.8
00 18.02 СЗ 1 4000 м слаб. ливневой снег 10/10 300 м
[Cb cap]
-3.3 -4.4 92 -6 -6 983.8 965.5
03 18.02 СЗ 6-12
{13}
20 км позёмок {ливн. осадки} 10/8 600 м
[Cb cap As op]
-3.4 -5.8 83 -11 -11 987.3 968.9 -4.0 0.7 67
06 18.02 С 8-14
{14}
2000 м слаб. ливневой снег {метель} 10/5 300 м
[Cb cap As op]
-5.9 -9.2 77 -15 -15 992.6 973.9 -5.9
09 18.02 С 8-12
{16}
2000 м слаб. ливневой снег {метель} 9/4 600 м
[Cb cap Ac As]
-7.7 -12.2 70 -17 -17 998.4 979.5
12 18.02 С 7-10
{17}
10 км слаб. ливневой снег {метель} 9/4 600 м
[Cb cap As op]
-8.6 -14.4 63 -17 -17 1003.1 984.0
15 18.02 С 7-11
{16}
20 км позёмок {ливн. осадки} 5/3 600 м
[Cb cap As op]
-10.3 -16.9 58 -19 -19 1008.0 988.7 -3.4 0.8
18 18.02 С 5
{14}
20 км позёмок {ливн. осадки} 3/0
[Ac trans]
-11.9 -17.5 63 -20 -20 1011.1 991.7
21 18.02 С 2 20 км {метель} ясно -15.2 -18.8 74 -20 -20 1013.5 993.8
00 19.02 СЗ 1 20 км {метель} ясно -17.8 -20.0 83 -21 -21 1014.9 994.9

 

Местоположение метеостанции Объячево (Коми, Россия): широта 60.37 долгота 49.65 высота над уровнем моря 152 м.

В архиве по умолчанию представлена погода в Объячеве за последнюю неделю. Архивные данные за месяц целиком и за предыдущие месяцы, начиная с января 2011 года, Вы можете получить, выбрав интересующий диапазон дат из раскрывающегося списка и нажав кнопку "Ввод!".


*Определитесь, кто Вы:
робот инопланетянин человек

Внимание! Время в таблицах - всемирное. Для получения местного времени необходимо прибавить поправку, которая равна 3 ч.

Смотрите также архив погоды в соседних городах и на ближайших метеорологических станциях:

Погода в Койгородке (Коми, Россия) (73 км)
Погода в Пустоши (Коми, Россия) (90 км)
Погода в Опарино (Кировская область, Россия) (95 км)
Погода в Лальске (Кировская область, Россия) (118 км)
Погода в Вилегодском (Архангельская область, Россия) (124 км)
Погода в Нагорске (Кировская область, Россия) (134 км)
Погода в Сыктывкаре (Коми, Россия) (158 км)
Погода в Усть-Черной (Пермский край, Россия) (164 км)
Погода в Слободчиково (Архангельская область, Россия) (171 км)
Погода в Белой Холунице (Кировская область, Россия) (184 км)

Пояснения к столбцам:

Ветер - указаны скорость ветра в м/с - средняя за 10 мин, порывы в срок и между сроками (в фигурных скобках) и направление, откуда дует ветер: С - северный, СВ - северо-восточный, В - восточный, ЮВ - юго-восточный, Ю - южный, ЮЗ - юго-западный, З - западный, СЗ - северо-западный.
Видимость - горизонтальная дальность видимости в метрах или километрах. При видимости от 1 до 10 км при отсутствии осадков обычно наблюдается дымка, при ухудшении видимости до 1 км и менее - туман. В сухую погоду видимость может ухудшаться дымом, пылью или мглою.
Явления - указаны атмосферные явления, наблюдавшиеся в срок или в последний час перед сроком; фигурными скобками обозначены явления, наблюдавшиеся между сроками (за 1-3 часа до срока); квадратными скобками обозначены град или гололедные отложения с указанием их диаметра в мм.
Облачность - указаны через наклонную черту общая и нижняя облачность в баллах и высота нижней границы облаков в метрах; квадратными скобками обозначены формы облаков: Ci - перистые, Cs - перисто-слоистые, Cc - перисто-кучевые, Ac - высококучевые, As - высокослоистые, Sc - слоисто-кучевые, Ns - слоисто-дождевые, Cu - кучевые, Cb - кучево-дождевые. Подробнее классификацию облаков см. в Атласе облаков (PDF).
T - Температура воздуха - температура, измеренная на высоте 2 м над землей.
Td - Температура точки росы - температура, при понижении до которой содержащийся в воздухе водяной пар достигнет насыщения.
f - Относительная влажность воздуха - влажноcть воздуха, измеренная на высоте 2 м над землей.
Te - Эффективная температура - температура, которую ощущает одетый по сезону человек в тени. Характеристика душности погоды. При расчете учитывается влияние влажности воздуха и скорости ветра на теплоощущения человека.
Tes - Эффективная температура на солнце - температура, которую ощущает человек, с поправкой на солнечный нагрев. Характеристика знойности погоды. Зависит от высоты солнца над горизонтом, облачности и скорости ветра. Ночью, в пасмурную погоду, а также при ветре 12 м/с и более поправка равна нулю.
P - Атмосферное давление - приведенное к уровню моря атмосферное давление.
Po - Атмосферное давление - измеренное на уровне метеостанции атмосферное давление.
Tmin - Минимальная температура - минимум температуры воздуха на высоте 2 м над землей.
Tmax - Максимальная температура - максимум температуры воздуха на высоте 2 м над землей.
R - Количество осадков - Количество выпавших осадков за период времени, мм. При наведении курсора мыши на число - период времени, за который выпало указанное количество осадков.
R24 - Количество осадков - Количество выпавших осадков за 24 часа, мм.
S - Снежный покров - Высота снежного покрова, см. При наведении курсора мыши на число - состояние снежного покрова и степень покрытия местности в баллах.